DW7214 Weather Reports


time (UTC)temp
F
wind
direction
speed
knots
gust
knots
rain 1hr
in
rain 24hr
in
rain mn
in
humidity
%
barometer
mb
20260506204511 70 176 1.7 7.0 0.00 0.00 0.00 63 1021.0
20260506203015 69 90 1.7 6.1 0.00 0.00 0.00 65 1020.8
20260506201519 68 157 1.7 7.8 0.00 0.00 0.00 67 1021.0
20260506200021 67 146 2.6 9.6 0.00 0.00 0.00 66 1021.2
20260506194524 67 30 1.7 7.0 0.00 0.00 0.00 69 1021.3
20260506193013 66 97 1.7 7.0 0.00 0.00 0.00 71 1021.4
20260506191517 65 117 1.7 6.1 0.00 0.00 0.00 71 1021.4
20260506190021 64 13 1.7 7.0 0.00 0.00 0.00 73 1021.4
20260506184522 63 93 2.6 8.7 0.00 0.00 0.00 73 1021.5
20260506183026 63 169 1.7 7.0 0.00 0.00 0.00 76 1021.4
20260506181514 63 42 1.7 6.1 0.00 0.00 0.00 74 1021.6
20260506180017 63 295 3.5 7.8 0.00 0.00 0.00 73 1021.8
20260506174521 62 158 1.7 7.0 0.00 0.00 0.00 76 1021.7
20260506173027 61 178 2.6 7.0 0.00 0.00 0.00 75 1021.5
20260506171512 61 46 1.7 5.2 0.00 0.00 0.00 77 1021.4
20260506170021 60 188 0.9 3.5 0.00 0.00 0.00 81 1021.6
20260506164524 57 143 0.0 2.6 0.00 0.00 0.00 84 1021.8
20260506163017 57 206 0.0 2.6 0.00 0.00 0.00 85 1021.8
20260506161511 56 132 0.9 3.5 0.00 0.00 0.00 84 1021.9
20260506160020 56 166 0.0 2.6 0.00 0.00 0.00 85 1021.7
20260506154522 56 180 0.9 2.6 0.00 0.00 0.00 85 1021.5
20260506153025 55 57 0.0 3.5 0.00 0.00 0.00 86 1021.0
20260506151508 54 109 0.9 2.6 0.00 0.00 0.00 88 1021.6
20260506150015 53 110 0.0 1.7 0.00 0.00 0.00 89 1021.7
20260506144523 53 128 0.0 1.7 0.00 0.00 0.00 90 1021.6
20260506143028 52 116 0.0 1.7 0.00 0.00 0.00 91 1021.5
20260506141526 52 138 0.9 1.7 0.00 0.00 0.00 91 1021.1
20260506140013 51 119 0.0 1.7 0.00 0.00 0.00 92 1020.8
20260506134520 51 86 0.0 1.7 0.00 0.00 0.00 92 1020.4
20260506133025 51 119 0.0 1.7 0.00 0.00 0.00 91 1020.4
20260506131524 52 119 0.0 0.0 0.00 0.00 0.00 90 1020.3
20260506130012 52 119 0.0 1.7 0.00 0.00 0.00 90 1020.2
20260506124516 53 119 0.0 1.7 0.00 0.00 0.00 90 1020.2
20260506123020 53 64 0.0 1.7 0.00 0.00 0.00 89 1020.0
20260506121523 54 64 0.9 1.7 0.00 0.00 0.00 89 1020.0
20260506120027 54 70 0.0 1.7 0.00 0.00 0.00 89 1020.1
20260506114517 53 59 0.0 1.7 0.00 0.00 0.00 89 1019.9
20260506113018 53 138 0.0 1.7 0.00 0.00 0.00 89 1019.7
20260506111523 53 138 0.0 1.7 0.00 0.00 0.00 89 1019.6
20260506110030 53 90 0.0 1.7 0.00 0.00 0.00 89 1019.4
20260506104527 53 122 0.9 1.7 0.00 0.00 0.00 89 1019.2
20260506103018 53 117 0.0 1.7 0.00 0.00 0.00 89 1019.0
20260506101520 53 194 0.9 1.7 0.00 0.00 0.00 89 1018.9
20260506100023 53 88 0.0 2.6 0.00 0.00 0.00 89 1018.8
20260506094526 53 74 0.0 1.7 0.00 0.00 0.00 89 1018.8
20260506093030 53 121 0.9 4.3 0.00 0.00 0.00 88 1018.6
20260506091523 53 88 0.9 5.2 0.00 0.00 0.00 88 1018.6
20260506090023 53 110 0.9 2.6 0.00 0.00 0.00 88 1018.6
20260506084526 54 120 0.9 2.6 0.00 0.00 0.00 88 1018.5
20260506083025 54 118 0.0 4.3 0.00 0.00 0.00 87 1018.5
20260506081525 54 134 0.9 2.6 0.00 0.00 0.00 87 1018.5
20260506073012 54 133 0.9 2.6 0.00 0.00 0.00 87 1018.2
20260506071517 54 161 0.9 2.6 0.00 0.00 0.00 87 1018.0
20260506061518 55 115 0.9 3.5 0.00 0.00 0.00 84 1017.8
20260506044530 60 46 0.9 1.7 0.00 0.00 0.00 80 1017.4
20260506043023 60 246 0.0 1.7 0.00 0.00 0.00 83 1017.2
20260506041512 60 242 0.0 1.7 0.00 0.00 0.00 83 1017.1
20260506040042 60 241 0.0 1.7 0.00 0.00 0.00 83 1016.7
20260506034523 60 229 0.9 1.7 0.00 0.00 0.00 82 1016.5
20260506033022 61 208 0.0 1.7 0.00 0.00 0.00 80 1016.4
20260506031540 62 154 0.0 1.7 0.00 0.00 0.00 77 1016.3
20260506030012 64 119 0.0 1.7 0.00 0.00 0.00 74 1016.2
20260506024520 65 119 0.0 1.7 0.00 0.00 0.00 73 1016.0
20260506023021 65 56 0.0 1.7 0.00 0.00 0.00 70 1015.8
20260506021524 65 74 0.0 3.5 0.00 0.00 0.00 69 1015.8
20260506020010 66 50 0.0 2.6 0.00 0.00 0.00 69 1016.0
20260506014515 66 268 0.0 1.7 0.00 0.00 0.00 69 1015.8
20260506013021 66 340 0.9 3.5 0.00 0.00 0.00 68 1016.0
20260506011523 65 302 1.7 3.5 0.00 0.00 0.00 68 1016.0
20260506010012 66 295 0.9 3.5 0.00 0.00 0.00 69 1016.0
20260506004511 66 303 0.9 3.5 0.00 0.00 0.00 68 1016.1
20260506003008 66 337 2.6 5.2 0.00 0.00 0.00 67 1016.0
20260506001504 66 303 2.6 5.2 0.00 0.00 0.00 68 1016.1
20260506000004 66 311 1.7 6.1 0.00 0.00 0.00 69 1016.2
20260505234506 66 17 4.3 8.7 0.00 0.00 0.00 69 1016.3
20260505233004 66 351 2.6 6.1 0.00 0.00 0.00 70 1016.5
20260505231504 65 360 0.9 3.5 0.00 0.00 0.00 69 1016.5
20260505230006 65 36 0.9 6.1 0.00 0.00 0.00 67 1016.5
20260505224506 65 240 0.9 5.2 0.00 0.00 0.00 68 1016.7
20260505223005 65 327 1.7 4.3 0.00 0.00 0.00 67 1016.7
20260505221509 65 314 1.7 3.5 0.00 0.00 0.00 68 1016.8
20260505220007 65 352 0.9 3.5 0.00 0.00 0.00 67 1017.0
20260505214506 64 49 0.9 3.5 0.00 0.00 0.00 70 1017.1
20260505213008 63 57 0.9 3.5 0.00 0.00 0.00 69 1017.2
20260505211508 63 351 0.9 3.5 0.00 0.00 0.00 71 1017.3
20260505210007 63 65 0.9 2.6 0.00 0.00 0.00 69 1017.3